This is the latest recevied weather packets stored in our database for station/object W0WFX-2. If no packets are shown the sender has not sent any weather packets the latest 10 day(s).
| Time | Temp. | Humidity | Pressure | Rain* | Wind** | Luminosity | Snow |
|---|---|---|---|---|---|---|---|
| 1787921574 | 19.44° C | 82% | 1021 hPa | 0 mm | - | 38 W/m² | - |
| 1787921267 | 18.89° C | 85% | 1021 hPa | 0 mm | - | 35 W/m² | - |
| 1787920964 | 18.89° C | 85% | 1020.8 hPa | 0 mm | - | 34 W/m² | - |
| 1787920659 | 17.78° C | 87% | 1020.5 hPa | 0 mm | - | 31 W/m² | - |
| 1787920358 | 17.78° C | 89% | 1020.4 hPa | 0 mm | - | 29 W/m² | - |
| 1787920055 | 17.78° C | 90% | 1020.6 hPa | 0 mm | - | 26 W/m² | - |
| 1787919756 | 17.22° C | 90% | 1020.6 hPa | 0 mm | - | 24 W/m² | - |
| 1787919455 | 17.22° C | 91% | 1020.6 hPa | 0 mm | - | 22 W/m² | - |
| 1787919150 | 17.22° C | 91% | 1020.4 hPa | 0 mm | - | 18 W/m² | - |
| 1787918850 | 17.22° C | 91% | 1020.3 hPa | 0 mm | - | 15 W/m² | - |
| 1787918545 | 17.22° C | 91% | 1020.3 hPa | 0 mm | - | 12 W/m² | - |
| 1787918243 | 17.22° C | 91% | 1020.1 hPa | 0 mm | - | 10 W/m² | - |
| 1787917939 | 16.67° C | 91% | 1020.1 hPa | 0 mm | - | 7 W/m² | - |
| 1787917634 | 16.67° C | 91% | 1020 hPa | 0 mm | - | 5 W/m² | - |
| 1787917330 | 16.67° C | 91% | 1020.1 hPa | 0 mm | - | 3 W/m² | - |
| 1787917030 | 16.67° C | 91% | 1020.1 hPa | 0 mm | - | 1 W/m² | - |
| 1787916724 | 16.67° C | 91% | 1019.8 hPa | 0 mm | - | 1 W/m² | - |
| 1787916419 | 16.67° C | 91% | 1020 hPa | 0 mm | - | 0 W/m² | - |
| 1787916115 | 16.67° C | 92% | 1019.9 hPa | 0 mm | - | 0 W/m² | - |
| 1787915809 | 16.67° C | 92% | 1019.9 hPa | 0 mm | - | 0 W/m² | - |
| 1787915504 | 16.67° C | 92% | 1020 hPa | 0 mm | - | 0 W/m² | - |
| 1787915199 | 16.67° C | 92% | 1020 hPa | 0 mm | - | 0 W/m² | - |
| 1787914898 | 16.67° C | 91% | 1020 hPa | 0 mm | - | 0 W/m² | - |
| 1787914597 | 16.67° C | 92% | 1019.9 hPa | 0 mm | - | 0 W/m² | - |
| 1787914292 | 17.22° C | 92% | 1020 hPa | 0 mm | - | 0 W/m² | - |
* Rain latest hour (hover to see other rain measurements)
** Current wind speed in m/s (hover to see current wind gust speed)